,,Stat6,,Stat2,,Stat8,,Stat9,,Stat10,,Wind1,,Wind1,
time,status,PA1M_AVG,status,PR1M_SUM,status,RH1M_AVG,status,SR1M_AVG,status,TA1M_AVG,status,W1dAve1m,status,W1sAve1m,
2004-05-03, 00:00:00,VALID,916.39,VALID,0,VALID,100,VALID,0,VALID,21.2265,VALID,18,VALID,0.845312,
2004-05-03, 00:01:00,VALID,916.373,VALID,0,VALID,100,VALID,0,VALID,21.2265,VALID,13,VALID,0.758721,
2004-05-03, 00:02:00,VALID,916.35,VALID,0,VALID,100,VALID,0,VALID,21.1877,VALID,9,VALID,0.732465,
2004-05-03, 00:03:00,VALID,916.337,VALID,0,VALID,100,VALID,0,VALID,21.1839,VALID,9,VALID,0.63125,
2004-05-03, 00:04:00,VALID,916.317,VALID,0,VALID,100,VALID,0.0169808,VALID,21.178,VALID,9,VALID,0.345982,
2004-05-03, 00:05:00,VALID,916.304,VALID,0,VALID,100,VALID,-0.0169808,VALID,21.1446,VALID,9,VALID,0.320313,
2004-05-03, 00:06:00,VALID,916.273,VALID,0,VALID,100,VALID,0,VALID,21.129,VALID,9,VALID,0.154797,
2004-05-03, 00:07:00,VALID,916.253,VALID,0,VALID,100,VALID,-0.0169808,VALID,21.1258,VALID,9,VALID,0,
2004-05-03, 00:08:00,VALID,916.244,VALID,0,VALID,100,VALID,0,VALID,21.1349,VALID,9,VALID,0.176639,
2004-05-03, 00:09:00,VALID,916.226,VALID,0,VALID,100,VALID,0,VALID,21.1549,VALID,9,VALID,0.0629987,
2004-05-03, 00:10:00,VALID,916.207,VALID,0,VALID,100,VALID,0,VALID,21.1449,VALID,9,VALID,0.219638,
2004-05-03, 00:11:00,VALID,916.196,VALID,0,VALID,100,VALID,0.0169808,VALID,21.1223,VALID,8,VALID,0.318004,
2004-05-03, 00:12:00,VALID,916.176,VALID,0,VALID,100,VALID,0,VALID,21.1252,VALID,359,VALID,0.393229,
2004-05-03, 00:13:00,VALID,916.175,VALID,0,VALID,100,VALID,0.0169808,VALID,21.126,VALID,354,VALID,0.338086,
2004-05-03, 00:14:00,VALID,916.17,VALID,0,VALID,100,VALID,0.0169808,VALID,21.1158,VALID,354,VALID,0.331555,
2004-05-03, 00:15:00,VALID,916.154,VALID,0,VALID,100,VALID,0.0339617,VALID,21.1325,VALID,354,VALID,0.100142,
2004-05-03, 00:16:00,VALID,916.149,VALID,0,VALID,100,VALID,0,VALID,21.1355,VALID,354,VALID,0,
2004-05-03, 00:17:00,VALID,916.145,VALID,0,VALID,100,VALID,0,VALID,21.1287,VALID,354,VALID,0,
2004-05-03, 00:18:00,VALID,916.15,VALID,0,VALID,100,VALID,-0.0169808,VALID,21.1549,VALID,356,VALID,0.116461,
2004-05-03, 00:19:00,VALID,916.149,VALID,0,VALID,100,VALID,0.0169808,VALID,21.1874,VALID,105,VALID,0.640625,
2004-05-03, 00:20:00,VALID,916.143,VALID,0,VALID,100,VALID,0.0339617,VALID,21.174,VALID,137,VALID,0.77309,
2004-05-03, 00:21:00,VALID,916.13,VALID,0,VALID,100,VALID,0.0169808,VALID,21.1645,VALID,135,VALID,0.479688,
2004-05-03, 00:22:00,VALID,916.121,VALID,0,VALID,100,VALID,0,VALID,21.1449,VALID,124,VALID,0.665179,
2004-05-03, 00:23:00,VALID,916.113,VALID,0,VALID,100,VALID,0,VALID,21.1325,VALID,124,VALID,0.329728,
2004-05-03, 00:24:00,VALID,916.107,VALID,0,VALID,100,VALID,0,VALID,21.1158,VALID,120,VALID,0.404652,
2004-05-03, 00:25:00,VALID,916.09,VALID,0,VALID,100,VALID,0.0169808,VALID,21.1519,VALID,74,VALID,0.514881,
2004-05-03, 00:26:00,VALID,916.087,VALID,0,VALID,100,VALID,0,VALID,21.1581,VALID,59,VALID,0.447852,
2004-05-03, 00:27:00,VALID,916.072,VALID,0,VALID,100,VALID,-0.0339617,VALID,21.1584,VALID,46,VALID,0.511624,
2004-05-03, 00:28:00,VALID,916.04,VALID,0,VALID,100,VALID,0,VALID,21.1384,VALID,43,VALID,0.409784,
2004-05-03, 00:29:00,VALID,916.029,VALID,0,VALID,100,VALID,0,VALID,21.1519,VALID,37,VALID,0.477951,
2004-05-03, 00:30:00,VALID,915.999,VALID,0,VALID,100,VALID,0,VALID,21.1651,VALID,33,VALID,0.470526,
2004-05-03, 00:31:00,VALID,915.958,VALID,0,VALID,100,VALID,0,VALID,21.1578,VALID,31,VALID,0.524009,
2004-05-03, 00:32:00,VALID,915.917,VALID,0,VALID,100,VALID,0,VALID,21.1645,VALID,31,VALID,0.45367,
2004-05-03, 00:33:00,VALID,915.892,VALID,0,VALID,100,VALID,0,VALID,21.1454,VALID,26,VALID,0.450945,
2004-05-03, 00:34:00,VALID,915.854,VALID,0,VALID,100,VALID,0,VALID,21.0967,VALID,358,VALID,0.683408,
2004-05-03, 00:35:00,VALID,915.822,VALID,0,VALID,100,VALID,0,VALID,21.0485,VALID,292,VALID,0.560369,
2004-05-03, 00:36:00,VALID,915.8,VALID,0,VALID,100,VALID,0,VALID,21.0359,VALID,277,VALID,0.321057,
2004-05-03, 00:37:00,VALID,915.776,VALID,0,VALID,100,VALID,0.0169808,VALID,21.0095,VALID,280,VALID,0.218568,
2004-05-03, 00:38:00,VALID,915.768,VALID,0,VALID,100,VALID,-0.0169808,VALID,21.003,VALID,282,VALID,0.158507,
2004-05-03, 00:39:00,VALID,915.744,VALID,0,VALID,100,VALID,-0.0169808,VALID,21.0033,VALID,282,VALID,0.244141,
2004-05-03, 00:40:00,VALID,915.738,VALID,0,VALID,100,VALID,-0.0169808,VALID,20.9933,VALID,282,VALID,0,
2004-05-03, 00:41:00,VALID,915.715,VALID,0,VALID,100,VALID,-0.0169808,VALID,21.0098,VALID,282,VALID,0,
2004-05-03, 00:42:00,VALID,915.711,VALID,0,VALID,100,VALID,0,VALID,21.02,VALID,282,VALID,0.0748546,
2004-05-03, 00:43:01,VALID,915.699,VALID,0,VALID,100,VALID,0,VALID,21.0125,VALID,282,VALID,0.0269717,
2004-05-03, 00:44:00,VALID,915.691,VALID,0,VALID,100,VALID,0.0169808,VALID,21.0068,VALID,282,VALID,0,
2004-05-03, 00:45:00,VALID,915.686,VALID,0,VALID,100,VALID,0,VALID,20.9974,VALID,282,VALID,0,
2004-05-03, 00:46:00,VALID,915.66,VALID,0,VALID,100,VALID,0,VALID,20.9581,VALID,282,VALID,0,
2004-05-03, 00:47:00,VALID,915.653,VALID,0,VALID,100,VALID,0,VALID,20.926,VALID,282,VALID,0,
2004-05-03, 00:48:00,VALID,915.646,VALID,0,VALID,100,VALID,0,VALID,20.9002,VALID,282,VALID,0,
2004-05-03, 00:49:00,VALID,915.618,VALID,0,VALID,100,VALID,0.0169808,VALID,20.8743,VALID,282,VALID,0,
2004-05-03, 00:50:00,VALID,915.605,VALID,0,VALID,100,VALID,0,VALID,20.8574,VALID,282,VALID,0,
2004-05-03, 00:51:00,VALID,915.593,VALID,0,VALID,100,VALID,0,VALID,20.8577,VALID,282,VALID,0,
2004-05-03, 00:52:00,VALID,915.593,VALID,0,VALID,100,VALID,-0.0169808,VALID,20.8321,VALID,282,VALID,0,
2004-05-03, 00:53:00,VALID,915.571,VALID,0,VALID,100,VALID,0.0169808,VALID,20.7963,VALID,282,VALID,0,
2004-05-03, 00:54:00,VALID,915.582,VALID,0,VALID,100,VALID,0,VALID,20.7739,VALID,282,VALID,0,
2004-05-03, 00:55:00,VALID,915.57,VALID,0,VALID,100,VALID,0.0169808,VALID,20.7513,VALID,282,VALID,0,
2004-05-03, 00:56:00,VALID,915.564,VALID,0,VALID,100,VALID,0,VALID,20.7258,VALID,282,VALID,0,
2004-05-03, 00:57:00,VALID,915.574,VALID,0,VALID,100,VALID,-0.0169808,VALID,20.6832,VALID,282,VALID,0,
2004-05-03, 00:58:00,VALID,915.568,VALID,0,VALID,100,VALID,0,VALID,20.6641,VALID,282,VALID,0.102679,
2004-05-03, 00:59:00,VALID,915.561,VALID,0,VALID,100,VALID,0.0169808,VALID,20.6455,VALID,282,VALID,0.556323,
2004-05-03, 01:00:01,VALID,915.554,VALID,0,VALID,100,VALID,0,VALID,20.6286,VALID,348,VALID,0.667333,
2004-05-03, 01:01:00,VALID,915.563,VALID,0,VALID,100,VALID,0,VALID,20.6584,VALID,1,VALID,0.697599,
2004-05-03, 01:02:00,VALID,915.554,VALID,0,VALID,100,VALID,0,VALID,20.7031,VALID,1,VALID,0.634233,
2004-05-03, 01:03:00,VALID,915.55,VALID,0,VALID,100,VALID,0.0169808,VALID,20.7478,VALID,1,VALID,0.321378,
2004-05-03, 01:04:00,VALID,915.535,VALID,0,VALID,100,VALID,0,VALID,20.7702,VALID,1,VALID,0.00290698,
2004-05-03, 01:05:00,VALID,915.523,VALID,0,VALID,100,VALID,0,VALID,20.7804,VALID,1,VALID,0,
2004-05-03, 01:06:00,VALID,915.512,VALID,0,VALID,100,VALID,0.0169808,VALID,20.8127,VALID,1,VALID,0.170945,
2004-05-03, 01:07:00,VALID,915.509,VALID,0,VALID,100,VALID,0,VALID,20.8358,VALID,1,VALID,0.371185,
2004-05-03, 01:08:01,VALID,915.5,VALID,0,VALID,100,VALID,0,VALID,20.8652,VALID,2,VALID,0.643714,
2004-05-03, 01:09:00,VALID,915.485,VALID,0,VALID,100,VALID,0,VALID,20.855,VALID,7,VALID,0.691406,
2004-05-03, 01:10:00,VALID,915.489,VALID,0,VALID,100,VALID,-0.0169808,VALID,20.8386,VALID,7,VALID,0.601926,
2004-05-03, 01:11:00,VALID,915.49,VALID,0,VALID,100,VALID,-0.0339617,VALID,20.8192,VALID,7,VALID,0.43559,
2004-05-03, 01:12:01,VALID,915.47,VALID,0,VALID,100,VALID,0,VALID,20.7931,VALID,7,VALID,0.370245,
2004-05-03, 01:13:00,VALID,915.457,VALID,0,VALID,100,VALID,0,VALID,20.7909,VALID,7,VALID,0.256925,
2004-05-03, 01:14:01,VALID,915.441,VALID,0,VALID,100,VALID,0,VALID,20.7777,VALID,7,VALID,0.180778,
2004-05-03, 01:15:00,VALID,915.424,VALID,0,VALID,100,VALID,-0.0339617,VALID,20.7511,VALID,7,VALID,0.0381098,
2004-05-03, 01:16:00,VALID,915.419,VALID,0,VALID,100,VALID,0,VALID,20.7548,VALID,7,VALID,0.0353423,
2004-05-03, 01:17:00,VALID,915.418,VALID,0,VALID,100,VALID,0,VALID,20.761,VALID,7,VALID,0.0102983,
2004-05-03, 01:18:00,VALID,915.416,VALID,0,VALID,100,VALID,-0.0339617,VALID,20.7715,VALID,7,VALID,0.0766715,
2004-05-03, 01:19:00,VALID,915.415,VALID,0,VALID,100,VALID,0,VALID,20.8073,VALID,7,VALID,0,
2004-05-03, 01:20:00,VALID,915.41,VALID,0,VALID,100,VALID,-0.0339617,VALID,20.8294,VALID,7,VALID,0,
2004-05-03, 01:21:01,VALID,915.404,VALID,0,VALID,100,VALID,0,VALID,20.8095,VALID,7,VALID,0,
2004-05-03, 01:22:00,VALID,915.405,VALID,0,VALID,100,VALID,0,VALID,20.8062,VALID,7,VALID,0,
2004-05-03, 01:23:01,VALID,915.397,VALID,0,VALID,100,VALID,-0.0339617,VALID,20.7901,VALID,7,VALID,0,
2004-05-03, 01:24:01,VALID,915.389,VALID,0,VALID,100,VALID,-0.0169808,VALID,20.7839,VALID,7,VALID,0,
2004-05-03, 01:25:00,VALID,915.363,VALID,0,VALID,100,VALID,0,VALID,20.7581,VALID,7,VALID,0,
2004-05-03, 01:26:01,VALID,915.33,VALID,0,VALID,100,VALID,-0.0339617,VALID,20.7387,VALID,7,VALID,0,
2004-05-03, 01:27:01,VALID,915.31,VALID,0,VALID,100,VALID,0,VALID,20.7489,VALID,7,VALID,0,
2004-05-03, 01:28:00,VALID,915.286,VALID,0,VALID,100,VALID,-0.0339617,VALID,20.7616,VALID,7,VALID,0,
2004-05-03, 01:29:00,VALID,915.259,VALID,0,VALID,100,VALID,0,VALID,20.7874,VALID,7,VALID,0.0304688,
2004-05-03, 01:30:00,VALID,915.244,VALID,0,VALID,100,VALID,-0.0169808,VALID,20.8296,VALID,7,VALID,0,
2004-05-03, 01:31:01,VALID,915.213,VALID,0,VALID,100,VALID,0,VALID,20.8455,VALID,7,VALID,0,
2004-05-03, 01:32:00,VALID,915.195,VALID,0,VALID,100,VALID,0,VALID,20.8585,VALID,7,VALID,0.0388849,
2004-05-03, 01:33:01,VALID,915.163,VALID,0,VALID,100,VALID,-0.0169808,VALID,20.8622,VALID,7,VALID,0.241992,
2004-05-03, 01:34:00,VALID,915.123,VALID,0,VALID,100,VALID,0,VALID,20.8843,VALID,7,VALID,0.225632,
2004-05-03, 01:35:01,VALID,915.096,VALID,0,VALID,100,VALID,0.0169808,VALID,20.8585,VALID,7,VALID,0.632999,
2004-05-03, 01:36:01,VALID,915.066,VALID,0,VALID,100,VALID,0,VALID,20.8291,VALID,345,VALID,0.791726,
2004-05-03, 01:37:01,VALID,915.047,VALID,0,VALID,100,VALID,0.0169808,VALID,20.7869,VALID,12,VALID,1.02514,
2004-05-03, 01:38:00,VALID,915.033,VALID,0,VALID,100,VALID,0.0169808,VALID,20.7971,VALID,5,VALID,0.726372,
2004-05-03, 01:39:00,VALID,915.017,VALID,0,VALID,100,VALID,0.0169808,VALID,20.7807,VALID,4,VALID,0.619191,
2004-05-03, 01:40:00,VALID,915.018,VALID,0,VALID,100,VALID,-0.0169808,VALID,20.771,VALID,4,VALID,0.481027,
2004-05-03, 01:41:00,VALID,915.018,VALID,0,VALID,100,VALID,0,VALID,20.771,VALID,4,VALID,0.224848,
2004-05-03, 01:42:00,VALID,915.02,VALID,0,VALID,100,VALID,0,VALID,20.7939,VALID,4,VALID,0.119978,
2004-05-03, 01:43:00,VALID,915.006,VALID,0,VALID,100,VALID,-0.0339617,VALID,20.7968,VALID,4,VALID,0.0287642,
2004-05-03, 01:44:00,VALID,914.978,VALID,0,VALID,100,VALID,0,VALID,20.7844,VALID,4,VALID,0.243521,
2004-05-03, 01:45:00,VALID,914.959,VALID,0,VALID,100,VALID,0,VALID,20.7715,VALID,4,VALID,0.0888889,
2004-05-03, 01:46:00,VALID,914.944,VALID,0,VALID,100,VALID,0,VALID,20.7809,VALID,4,VALID,0.0638021,
2004-05-03, 01:47:00,VALID,914.928,VALID,0,VALID,100,VALID,-0.0169808,VALID,20.7677,VALID,4,VALID,0.0110828,
2004-05-03, 01:48:00,VALID,914.927,VALID,0,VALID,100,VALID,-0.0339617,VALID,20.7747,VALID,4,VALID,0.147636,
2004-05-03, 01:49:00,VALID,914.909,VALID,0,VALID,100,VALID,-0.0169808,VALID,20.768,VALID,4,VALID,0.0679506,
2004-05-03, 01:50:00,VALID,914.92,VALID,0,VALID,100,VALID,-0.0339617,VALID,20.7809,VALID,4,VALID,0.0501143,
2004-05-03, 01:51:00,VALID,914.904,VALID,0,VALID,100,VALID,0,VALID,20.7712,VALID,4,VALID,0.123857,
2004-05-03, 01:52:00,VALID,914.884,VALID,0,VALID,100,VALID,-0.0679233,VALID,20.7648,VALID,4,VALID,0,
2004-05-03, 01:53:00,VALID,914.85,VALID,0,VALID,100,VALID,-0.0339617,VALID,20.7521,VALID,4,VALID,0.046875,
2004-05-03, 01:54:01,VALID,914.825,VALID,0,VALID,100,VALID,-0.0509425,VALID,20.7258,VALID,4,VALID,0.155208,
2004-05-03, 01:55:00,VALID,914.814,VALID,0,VALID,100,VALID,-0.0339617,VALID,20.7298,VALID,4,VALID,0.0626817,
2004-05-03, 01:56:00,VALID,914.787,VALID,0,VALID,100,VALID,0,VALID,20.7389,VALID,4,VALID,0.0830305,
2004-05-03, 01:57:00,VALID,914.781,VALID,0,VALID,100,VALID,-0.0509425,VALID,20.7193,VALID,4,VALID,0.0907738,
2004-05-03, 01:58:01,VALID,914.781,VALID,0,VALID,100,VALID,-0.0339617,VALID,20.7225,VALID,4,VALID,0.354226,
2004-05-03, 01:59:01,VALID,914.794,VALID,0,VALID,100,VALID,-0.0339617,VALID,20.7196,VALID,4,VALID,0.229651,
2004-05-03, 02:00:00,VALID,914.784,VALID,0,VALID,100,VALID,-0.0339617,VALID,20.7395,VALID,4,VALID,0.00706845,
2004-05-03, 02:01:00,VALID,914.779,VALID,0,VALID,100,VALID,-0.0509425,VALID,20.7486,VALID,4,VALID,0.202217,
2004-05-03, 02:02:01,VALID,914.766,VALID,0,VALID,100,VALID,-0.0679233,VALID,20.7419,VALID,4,VALID,0.208212,
2004-05-03, 02:03:01,VALID,914.743,VALID,0,VALID,100,VALID,0,VALID,20.7427,VALID,4,VALID,0.144622,
2004-05-03, 02:04:01,VALID,914.745,VALID,0,VALID,100,VALID,-0.0339617,VALID,20.733,VALID,4,VALID,0.0779433,
2004-05-03, 02:05:00,VALID,914.723,VALID,0,VALID,100,VALID,-0.0509425,VALID,20.7295,VALID,4,VALID,0.00520833,
2004-05-03, 02:06:00,VALID,914.71,VALID,0,VALID,100,VALID,-0.0509425,VALID,20.7362,VALID,4,VALID,0.0182292,
2004-05-03, 02:07:00,VALID,914.711,VALID,0,VALID,100,VALID,-0.0339617,VALID,20.7327,VALID,4,VALID,0,
2004-05-03, 02:08:00,VALID,914.702,VALID,0,VALID,100,VALID,-0.0509425,VALID,20.7258,VALID,4,VALID,0,
2004-05-03, 02:09:00,VALID,914.69,VALID,0,VALID,100,VALID,-0.0509425,VALID,20.7196,VALID,4,VALID,0,
2004-05-03, 02:10:00,VALID,914.682,VALID,0,VALID,100,VALID,0,VALID,20.726,VALID,4,VALID,0,
2004-05-03, 02:11:00,VALID,914.664,VALID,0,VALID,100,VALID,-0.101885,VALID,20.7031,VALID,4,VALID,0.00218023,
2004-05-03, 02:12:01,VALID,914.66,VALID,0,VALID,100,VALID,-0.0169808,VALID,20.684,VALID,4,VALID,0,
2004-05-03, 02:13:01,VALID,914.655,VALID,0,VALID,100,VALID,-0.0169808,VALID,20.6584,VALID,4,VALID,0,
2004-05-03, 02:14:00,VALID,914.635,VALID,0,VALID,100,VALID,-0.0509425,VALID,20.6227,VALID,4,VALID,0,
2004-05-03, 02:15:00,VALID,914.603,VALID,0,VALID,100,VALID,-0.0509425,VALID,20.5739,VALID,4,VALID,0.148983,
2004-05-03, 02:16:00,VALID,914.607,VALID,0,VALID,100,VALID,-0.0169808,VALID,20.5578,VALID,4,VALID,0.32066,
2004-05-03, 02:17:00,VALID,914.59,VALID,0,VALID,100,VALID,-0.0169808,VALID,20.5486,VALID,4,VALID,0.38058,
2004-05-03, 02:18:00,VALID,914.584,VALID,0,VALID,100,VALID,-0.0339617,VALID,20.5295,VALID,4,VALID,0.40957,
2004-05-03, 02:19:01,VALID,914.575,VALID,0,VALID,100,VALID,-0.0509425,VALID,20.4902,VALID,4,VALID,0.427539,
2004-05-03, 02:20:00,VALID,914.572,VALID,0,VALID,100,VALID,-0.0339617,VALID,20.4619,VALID,31,VALID,0.51726,
2004-05-03, 02:21:00,VALID,914.569,VALID,0,VALID,100,VALID,-0.0679233,VALID,20.407,VALID,34,VALID,0.616097,
2004-05-03, 02:22:00,VALID,914.569,VALID,0,VALID,100,VALID,-0.0339617,VALID,20.3551,VALID,34,VALID,0.759859,
2004-05-03, 02:23:00,VALID,914.569,VALID,0,VALID,100,VALID,-0.0509425,VALID,20.3225,VALID,39,VALID,0.815163,
2004-05-03, 02:24:01,VALID,914.566,VALID,0,VALID,100,VALID,-0.0509425,VALID,20.2967,VALID,41,VALID,0.708333,
2004-05-03, 02:25:00,VALID,914.553,VALID,0,VALID,100,VALID,0,VALID,20.3004,VALID,41,VALID,0.754092,
2004-05-03, 02:26:00,VALID,914.549,VALID,0,VALID,100,VALID,-0.0339617,VALID,20.2811,VALID,41,VALID,0.801829,
2004-05-03, 02:27:01,VALID,914.545,VALID,0,VALID,100,VALID,-0.0509425,VALID,20.2647,VALID,41,VALID,0.582961,
2004-05-03, 02:28:00,VALID,914.542,VALID,0,VALID,100,VALID,-0.0339617,VALID,20.2714,VALID,41,VALID,0.455171,
2004-05-03, 02:29:00,VALID,914.534,VALID,0,VALID,100,VALID,-0.0169808,VALID,20.2641,VALID,41,VALID,0.298018,
2004-05-03, 02:30:01,VALID,914.526,VALID,0,VALID,100,VALID,-0.0169808,VALID,20.284,VALID,41,VALID,0.197409,
2004-05-03, 02:31:01,VALID,914.522,VALID,0,VALID,100,VALID,-0.0169808,VALID,20.3037,VALID,41,VALID,0.107329,
2004-05-03, 02:32:01,VALID,914.503,VALID,0,VALID,100,VALID,-0.0679233,VALID,20.287,VALID,41,VALID,0.252841,
2004-05-03, 02:33:01,VALID,914.495,VALID,0,VALID,100,VALID,-0.0509425,VALID,20.2649,VALID,41,VALID,0.359961,
2004-05-03, 02:34:00,VALID,914.462,VALID,0,VALID,100,VALID,-0.101885,VALID,20.2622,VALID,43,VALID,0.553299,
2004-05-03, 02:35:01,VALID,914.453,VALID,0,VALID,100,VALID,-0.0509425,VALID,20.2716,VALID,66,VALID,0.643924,
2004-05-03, 02:36:00,VALID,914.434,VALID,0,VALID,100,VALID,-0.0679233,VALID,20.255,VALID,74,VALID,0.547433,
2004-05-03, 02:37:01,VALID,914.414,VALID,0,VALID,100,VALID,-0.101885,VALID,20.253,VALID,84,VALID,0.483665,
2004-05-03, 02:38:01,VALID,914.395,VALID,0,VALID,100,VALID,-0.101885,VALID,20.2458,VALID,84,VALID,0.530007,
2004-05-03, 02:39:01,VALID,914.39,VALID,0,VALID,100,VALID,-0.101885,VALID,20.2684,VALID,84,VALID,0.423828,
2004-05-03, 02:40:01,VALID,914.381,VALID,0,VALID,100,VALID,-0.101885,VALID,20.2686,VALID,84,VALID,0.429688,
2004-05-03, 02:41:01,VALID,914.382,VALID,0,VALID,100,VALID,-0.0849042,VALID,20.2821,VALID,84,VALID,0.585582,
2004-05-03, 02:42:01,VALID,914.381,VALID,0,VALID,100,VALID,-0.101885,VALID,20.2975,VALID,84,VALID,0.455487,
2004-05-03, 02:43:00,VALID,914.374,VALID,0,VALID,100,VALID,-0.101885,VALID,20.2977,VALID,87,VALID,0.373698,
2004-05-03, 02:44:00,VALID,914.377,VALID,0,VALID,100,VALID,-0.101885,VALID,20.3047,VALID,89,VALID,0.349276,
2004-05-03, 02:45:01,VALID,914.378,VALID,0,VALID,100,VALID,-0.0679233,VALID,20.298,VALID,89,VALID,0.496761,
2004-05-03, 02:46:01,VALID,914.382,VALID,0,VALID,100,VALID,-0.118866,VALID,20.2848,VALID,90,VALID,0.291481,
2004-05-03, 02:47:01,VALID,914.385,VALID,0,VALID,100,VALID,-0.135847,VALID,20.291,VALID,90,VALID,0.0599524,
2004-05-03, 02:48:01,VALID,914.378,VALID,0,VALID,100,VALID,-0.0339617,VALID,20.2905,VALID,90,VALID,0.278888,
2004-05-03, 02:49:00,VALID,914.367,VALID,0,VALID,100,VALID,-0.0169808,VALID,20.2897,VALID,90,VALID,0.156622,
2004-05-03, 02:50:01,VALID,914.355,VALID,0,VALID,100,VALID,0.0169808,VALID,20.3032,VALID,90,VALID,0,
2004-05-03, 02:51:01,VALID,914.349,VALID,0,VALID,100,VALID,0,VALID,20.2957,VALID,90,VALID,0,
2004-05-03, 02:52:01,VALID,914.342,VALID,0,VALID,100,VALID,0.0169808,VALID,20.2992,VALID,90,VALID,0,
2004-05-03, 02:53:01,VALID,914.338,VALID,0,VALID,100,VALID,0,VALID,20.3088,VALID,90,VALID,0,
2004-05-03, 02:54:01,VALID,914.325,VALID,0,VALID,100,VALID,0.0169808,VALID,20.3153,VALID,90,VALID,0,
2004-05-03, 02:55:01,VALID,914.316,VALID,0,VALID,100,VALID,0.0169808,VALID,20.3188,VALID,90,VALID,0,
2004-05-03, 02:56:01,VALID,914.299,VALID,0,VALID,100,VALID,0.0169808,VALID,20.3247,VALID,90,VALID,0,
2004-05-03, 02:57:01,VALID,914.291,VALID,0,VALID,100,VALID,0,VALID,20.3218,VALID,90,VALID,0,
2004-05-03, 02:58:01,VALID,914.292,VALID,0,VALID,100,VALID,0.0169808,VALID,20.3282,VALID,90,VALID,0,
2004-05-03, 02:59:01,VALID,914.28,VALID,0,VALID,100,VALID,0.0339617,VALID,20.3506,VALID,90,VALID,0.0288881,
2004-05-03, 03:00:01,VALID,914.264,VALID,0,VALID,100,VALID,0,VALID,20.3737,VALID,90,VALID,0.228087,
2004-05-03, 03:01:01,VALID,914.266,VALID,0,VALID,100,VALID,0,VALID,20.3869,VALID,90,VALID,0.151296,
2004-05-03, 03:02:01,VALID,914.251,VALID,0,VALID,100,VALID,0.0339617,VALID,20.3799,VALID,90,VALID,0.277435,
2004-05-03, 03:03:01,VALID,914.259,VALID,0,VALID,100,VALID,0.0169808,VALID,20.3968,VALID,91,VALID,0.311047,
2004-05-03, 03:04:01,VALID,914.251,VALID,0,VALID,100,VALID,0.0169808,VALID,20.4286,VALID,95,VALID,0.340909,
2004-05-03, 03:05:01,VALID,914.246,VALID,0,VALID,100,VALID,0,VALID,20.4676,VALID,107,VALID,0.335007,
2004-05-03, 03:06:01,VALID,914.257,VALID,0,VALID,100,VALID,0.0169808,VALID,20.4902,VALID,201,VALID,0.387957,
2004-05-03, 03:07:01,VALID,914.255,VALID,0,VALID,100,VALID,0,VALID,20.5185,VALID,201,VALID,0.0754616,
2004-05-03, 03:08:01,VALID,914.248,VALID,0,VALID,100,VALID,0.0169808,VALID,20.5416,VALID,201,VALID,0.332422,
2004-05-03, 03:09:01,VALID,914.245,VALID,0,VALID,100,VALID,0.0339617,VALID,20.5215,VALID,201,VALID,0.29415,
2004-05-03, 03:10:01,VALID,914.24,VALID,0,VALID,100,VALID,0.0169808,VALID,20.5153,VALID,201,VALID,0.114769,
2004-05-03, 03:11:01,VALID,914.238,VALID,0,VALID,100,VALID,0,VALID,20.5352,VALID,201,VALID,0.0602134,
2004-05-03, 03:12:01,VALID,914.237,VALID,0,VALID,100,VALID,0,VALID,20.529,VALID,201,VALID,0.174924,
2004-05-03, 03:13:01,VALID,914.238,VALID,0,VALID,100,VALID,-0.0169808,VALID,20.5258,VALID,201,VALID,0.0635901,
2004-05-03, 03:14:01,VALID,914.227,VALID,0,VALID,100,VALID,0,VALID,20.5317,VALID,201,VALID,0,
2004-05-03, 03:15:01,VALID,914.215,VALID,0,VALID,100,VALID,0.0169808,VALID,20.5317,VALID,201,VALID,0,
2004-05-03, 03:16:01,VALID,914.207,VALID,0,VALID,100,VALID,0,VALID,20.532,VALID,201,VALID,0,
2004-05-03, 03:17:01,VALID,914.19,VALID,0,VALID,100,VALID,0,VALID,20.5287,VALID,201,VALID,0,
2004-05-03, 03:18:00,VALID,914.182,VALID,0,VALID,100,VALID,-0.0169808,VALID,20.4897,VALID,200,VALID,0.179869,
2004-05-03, 03:19:00,VALID,914.17,VALID,0,VALID,100,VALID,0,VALID,20.4453,VALID,179,VALID,0.354802,
2004-05-03, 03:20:00,VALID,914.148,VALID,0,VALID,100,VALID,0,VALID,20.3998,VALID,177,VALID,0.384266,
2004-05-03, 03:21:00,VALID,914.129,VALID,0,VALID,100,VALID,0,VALID,20.3645,VALID,177,VALID,0.350836,
2004-05-03, 03:22:00,VALID,914.114,VALID,0,VALID,100,VALID,-0.0339617,VALID,20.3352,VALID,177,VALID,0.44798,
2004-05-03, 03:23:00,VALID,914.108,VALID,0,VALID,100,VALID,0,VALID,20.3158,VALID,176,VALID,0.31612,
2004-05-03, 03:24:00,VALID,914.089,VALID,0,VALID,100,VALID,-0.0169808,VALID,20.3258,VALID,176,VALID,0.338778,
2004-05-03, 03:25:00,VALID,914.081,VALID,0,VALID,100,VALID,-0.0169808,VALID,20.319,VALID,174,VALID,0.349609,
2004-05-03, 03:26:00,VALID,914.072,VALID,0,VALID,100,VALID,0,VALID,20.3131,VALID,173,VALID,0.105655,
2004-05-03, 03:27:00,VALID,914.075,VALID,0,VALID,100,VALID,0,VALID,20.3123,VALID,173,VALID,0.121761,
2004-05-03, 03:28:00,VALID,914.084,VALID,0,VALID,100,VALID,0.0169808,VALID,20.3161,VALID,172,VALID,0.362216,
2004-05-03, 03:29:00,VALID,914.089,VALID,0,VALID,100,VALID,0,VALID,20.3091,VALID,168,VALID,0.312872,
2004-05-03, 03:30:00,VALID,914.089,VALID,0,VALID,100,VALID,0,VALID,20.3094,VALID,164,VALID,0.341146,
2004-05-03, 03:31:00,VALID,914.103,VALID,0,VALID,100,VALID,-0.0169808,VALID,20.3161,VALID,148,VALID,0.463763,
2004-05-03, 03:32:00,VALID,914.108,VALID,0,VALID,100,VALID,0,VALID,20.319,VALID,148,VALID,0.256696,
2004-05-03, 03:33:00,VALID,914.102,VALID,0,VALID,100,VALID,-0.0169808,VALID,20.3511,VALID,148,VALID,0.124809,
2004-05-03, 03:34:00,VALID,914.097,VALID,0,VALID,100,VALID,0,VALID,20.3672,VALID,148,VALID,0.046875,
2004-05-03, 03:35:00,VALID,914.096,VALID,0,VALID,100,VALID,0,VALID,20.3869,VALID,148,VALID,0.178285,
2004-05-03, 03:36:00,VALID,914.099,VALID,0,VALID,100,VALID,0,VALID,20.3968,VALID,141,VALID,0.566229,
2004-05-03, 03:37:00,VALID,914.103,VALID,0,VALID,100,VALID,0,VALID,20.413,VALID,133,VALID,0.683594,
2004-05-03, 03:38:00,VALID,914.097,VALID,0,VALID,100,VALID,-0.0169808,VALID,20.3871,VALID,127,VALID,0.610764,
2004-05-03, 03:39:00,VALID,914.101,VALID,0,VALID,100,VALID,0,VALID,20.371,VALID,123,VALID,0.364139,
2004-05-03, 03:40:00,VALID,914.097,VALID,0,VALID,100,VALID,0,VALID,20.3548,VALID,123,VALID,0.284598,
2004-05-03, 03:41:00,VALID,914.099,VALID,0,VALID,100,VALID,0.0339617,VALID,20.3613,VALID,122,VALID,0.264737,
2004-05-03, 03:42:00,VALID,914.095,VALID,0,VALID,100,VALID,0,VALID,20.3414,VALID,119,VALID,0.284896,
2004-05-03, 03:43:00,VALID,914.075,VALID,0,VALID,100,VALID,0,VALID,20.3613,VALID,115,VALID,0.495355,
2004-05-03, 03:44:00,VALID,914.088,VALID,0,VALID,100,VALID,-0.0169808,VALID,20.3548,VALID,95,VALID,0.646763,
2004-05-03, 03:45:00,VALID,914.08,VALID,0,VALID,100,VALID,0.0169808,VALID,20.3645,VALID,88,VALID,0.553445,
2004-05-03, 03:46:00,VALID,914.08,VALID,0,VALID,100,VALID,0,VALID,20.3446,VALID,88,VALID,0.537388,
2004-05-03, 03:47:00,VALID,914.082,VALID,0,VALID,100,VALID,-0.0169808,VALID,20.3355,VALID,88,VALID,0.551153,